This demonstration page uses our WeatherBlox Daily Observations layout. Learn more.

Left ArrowRight Arrow

44.31136, -96.79839

Hourly Observations for July 2, 2015

Temp ( °F °C ) Dew Point ( °F °C ) Humidity (%) Winds ( mph kmh ) Pressure ( in mb ) Visibility ( mi km ) Precip ( " mm )
12:15 am 00:15 Clear 61 16 54 12 77 77 ESE 8 13 30.00 1016 10 16 0.00 0.00
12:35 am 00:35 Clear 61 16 54 12 77 77 ESE 6 9 30.00 1016 10 16 0.00 0.00
12:55 am 00:55 Clear 61 16 54 12 77 77 ESE 6 9 30.00 1016 10 16 0.00 0.00
1:15 am 01:15 Clear 61 16 54 12 77 77 ESE 8 13 29.97 1015 10 16 0.00 0.00
1:35 am 01:35 Clear 61 16 54 12 77 77 ESE 8 13 29.97 1015 10 16 0.00 0.00
1:55 am 01:55 Clear 59 15 54 12 82 82 SE 10 17 29.97 1015 10 16 0.00 0.00
2:15 am 02:15 Clear 59 15 52 11 77 77 ESE 9 15 29.97 1015 10 16 0.00 0.00
2:35 am 02:35 Clear 59 15 52 11 77 77 ESE 8 13 29.97 1015 10 16 0.00 0.00
2:55 am 02:55 Clear 59 15 52 11 77 77 SE 9 15 29.97 1015 10 16 0.00 0.00
3:15 am 03:15 Clear 57 14 52 11 82 82 SSE 7 11 30.00 1016 10 16 0.00 0.00
3:35 am 03:35 Clear 57 14 52 11 82 82 ESE 6 9 30.00 1016 10 16 0.00 0.00
3:55 am 03:55 Clear 57 14 52 11 82 82 SE 5 7 30.03 1017 10 16 0.00 0.00
4:15 am 04:15 Clear 57 14 52 11 82 82 SE 5 7 30.03 1017 10 16 0.00 0.00
4:35 am 04:35 Mostly Cloudy 57 14 54 12 88 88 SSE 3 6 30.03 1017 10 16 0.00 0.00
4:55 am 04:55 Cloudy 57 14 54 12 88 88 SE 7 11 30.03 1017 10 16 0.00 0.00
5:15 am 05:15 Cloudy 57 14 54 12 88 88 SE 9 15 30.03 1017 10 16 0.00 0.00
5:35 am 05:35 Cloudy 57 14 54 12 88 88 SE 7 11 30.03 1017 10 16 0.00 0.00
5:55 am 05:55 Mostly Cloudy 57 14 52 11 82 82 SE 7 11 30.03 1017 9 14 0.00 0.00
6:15 am 06:15 Mostly Sunny 57 14 52 11 82 82 SE 6 9 30.03 1017 10 16 0.00 0.00
6:35 am 06:35 Mostly Cloudy 57 14 54 12 88 88 SSE 5 7 30.03 1017 10 16 0.00 0.00
6:55 am 06:55 Mostly Cloudy 57 14 54 12 88 88 SSE 7 11 30.03 1017 10 16 0.00 0.00
7:15 am 07:15 Mostly Sunny 57 14 54 12 88 88 ESE 7 11 30.03 1017 10 16 0.00 0.00
7:35 am 07:35 Sunny 57 14 54 12 88 88 SE 6 9 30.03 1017 10 16 0.00 0.00
7:55 am 07:55 Sunny 57 14 54 12 88 88 ESE 8 13 30.03 1017 10 16 0.00 0.00
8:15 am 08:15 Sunny 57 14 54 12 88 88 ESE 7 11 30.00 1016 10 16 0.00 0.00
8:35 am 08:35 Sunny 57 14 54 12 88 88 SE 7 11 30.03 1017 10 16 0.00 0.00
8:55 am 08:55 Sunny 59 15 52 11 77 77 ESE 9 15 30.00 1016 10 16 0.00 0.00
9:15 am 09:15 Sunny 61 16 52 11 72 72 SSE 6 9 30.00 1016 10 16 0.00 0.00
9:35 am 09:35 Sunny 61 16 52 11 72 72 SE 6 9 30.00 1016 10 16 0.00 0.00
9:55 am 09:55 Sunny 61 16 50 10 68 68 ESE 6 9 30.00 1016 10 16 0.00 0.00
10:15 am 10:15 Sunny 63 17 50 10 64 64 ESE 7 11 30.00 1016 10 16 0.00 0.00
10:35 am 10:35 Sunny 63 17 48 9 59 59 SSE 8 13 30.00 1016 10 16 0.00 0.00
10:55 am 10:55 Sunny 64 18 48 9 56 56 S 10 17 30.00 1016 10 16 0.00 0.00
11:15 am 11:15 Sunny 64 18 48 9 56 56 SSW 9 15 30.00 1016 10 16 0.00 0.00
11:35 am 11:35 Sunny 64 18 48 9 56 56 SE 8 13 30.00 1016 10 16 0.00 0.00
11:55 am 11:55 Sunny 64 18 48 9 56 56 S 6 9 30.00 1016 10 16 0.00 0.00
12:15 pm 12:15 Sunny 64 18 48 9 56 56 SSE 6 9 30.00 1016 10 16 0.00 0.00
12:35 pm 12:35 Sunny 66 19 48 9 52 52 SE 6 9 30.00 1016 10 16 0.00 0.00
12:55 pm 12:55 Sunny 70 21 50 10 50 50 E 8 13 29.97 1015 10 16 0.00 0.00
1:15 pm 13:15 Sunny 68 20 46 8 46 46 ESE 9 15 29.97 1015 10 16 0.00 0.00
1:35 pm 13:35 Sunny 70 21 46 8 43 43 SE 6 9 29.97 1015 10 16 0.00 0.00
1:55 pm 13:55 Sunny 70 21 46 8 43 43 E 6 9 29.97 1015 10 16 0.00 0.00
2:15 pm 14:15 Mostly Sunny 70 21 46 8 43 43 E 3 6 29.97 1015 10 16 0.00 0.00
2:35 pm 14:35 Partly Cloudy 70 21 48 9 46 46 ESE 7 11 29.97 1015 10 16 0.00 0.00
2:55 pm 14:55 Mostly Cloudy 70 21 46 8 43 43 Calm 29.97 1015 10 16 0.00 0.00
3:15 pm 15:15 Mostly Cloudy 70 21 48 9 46 46 SE 9 15 29.97 1015 10 16 0.00 0.00
3:35 pm 15:35 Mostly Sunny 70 21 48 9 46 46 SE 7 11 29.97 1015 10 16 0.00 0.00
3:55 pm 15:55 Sunny 70 21 48 9 46 46 SSE 5 7 29.97 1015 10 16 0.00 0.00
4:15 pm 16:15 Mostly Sunny 70 21 48 9 46 46 SE 6 9 29.97 1015 10 16 0.00 0.00
4:35 pm 16:35 Sunny 72 22 48 9 44 44 SSE 7 11 29.97 1015 10 16 0.00 0.00
4:55 pm 16:55 Sunny 72 22 48 9 44 44 SE 8 13 29.97 1015 10 16 0.00 0.00
5:15 pm 17:15 Sunny 70 21 50 10 50 50 SE 7 11 29.94 1014 10 16 0.00 0.00
5:35 pm 17:35 Sunny 72 22 50 10 47 47 SSE 6 9 29.94 1014 10 16 0.00 0.00
5:55 pm 17:55 Sunny 72 22 50 10 47 47 S 7 11 29.94 1014 10 16 0.00 0.00
6:15 pm 18:15 Sunny 72 22 52 11 50 50 S 7 11 29.94 1014 10 16 0.00 0.00
6:35 pm 18:35 Sunny 70 21 52 11 53 53 SSE 6 9 29.94 1014 10 16 0.00 0.00
6:55 pm 18:55 Partly Cloudy 72 22 52 11 50 50 SSE 7 11 29.94 1014 10 16 0.00 0.00
7:15 pm 19:15 Mostly Sunny 70 21 54 12 57 57 SSW 7 11 29.94 1014 10 16 0.00 0.00
7:35 pm 19:35 Sunny 70 21 54 12 57 57 S 5 7 29.94 1014 10 16 0.00 0.00
7:55 pm 19:55 Sunny 70 21 54 12 57 57 S 6 9 29.94 1014 10 16 0.00 0.00
8:15 pm 20:15 Sunny 68 20 54 12 60 60 S 6 9 29.94 1014 10 16 0.00 0.00
8:35 pm 20:35 Sunny 66 19 54 12 64 64 S 6 9 29.97 1015 10 16 0.00 0.00
8:55 pm 20:55 Sunny 66 19 54 12 64 64 S 3 6 29.97 1015 10 16 0.00 0.00
9:15 pm 21:15 Clear 66 19 54 12 64 64 S 3 6 29.97 1015 10 16 0.00 0.00
9:35 pm 21:35 Clear 64 18 54 12 68 68 SSE 3 6 29.97 1015 10 16 0.00 0.00
9:55 pm 21:55 Clear 63 17 54 12 73 73 S 5 7 29.97 1015 10 16 0.00 0.00
10:15 pm 22:15 Clear 63 17 54 12 73 73 S 6 9 30.00 1016 10 16 0.00 0.00
10:35 pm 22:35 Clear 61 16 54 12 77 77 S 6 9 30.00 1016 10 16 0.00 0.00
10:55 pm 22:55 Clear 61 16 54 12 77 77 S 6 9 30.00 1016 10 16 0.00 0.00
11:15 pm 23:15 Clear 61 16 54 12 77 77 SSW 5 7 30.00 1016 10 16 0.00 0.00
11:35 pm 23:35 Clear 57 14 52 11 82 82 Calm 30.03 1017 10 16 0.00 0.00
11:55 pm 23:55 Clear 61 16 54 12 77 77 S 5 7 30.00 1016 10 16 0.00 0.00

Powered by AerisWeather